Content
SEND FEEDBACK

Daily
Averages
Monthly
Summary
Thailand

PHUKET, THAILAND


Home > Asia > Thailand
Elevation: 33 feet     Latitude: 08 07N     Longitude: 098 19E

WEATHER
 
SELECT A DAY
Number of Records: 236,427;   Date Range: 7/1/96 - 12/23/14
 
SHARE

PRINT THIS DATA

[ ← Previous Day ]
WEATHER ALMANAC - OCTOBER 15, 2013
[ Next Day → ]
[ °C ]   °F
Weather ElementAverageHighLow
Temperature82.9 °F88 °F (1:00 pm)78.8 °F (6:00 am)
Dewpoint74.9 °F77 °F (1:00 am)73.4 °F (12:30 am)
Humidity76.7 %84 % (1:00 am)64 % (1:00 pm)
Barometer29.82 in29.89 in (9:00 am)29.74 in (7:00 pm)
Wind Speed9.4 mph16.1 mph (11:30 am)
Weather ElementAverage
Visibility5.4 mi
Wind DirectionWNW (284.4 °)

Weather ElementTotal
Precipitation---
Cooling Degree Days18.4 (Base 65)
Growing Degree Days33.4 (Base 50)
Averaged from 50 records on October 15, 2013
WEATHER CONDITIONS BREAKOUT
WIND DIRECTION BREAKOUT
WEATHER BY HOUR - OCTOBER 15, 2013
[ °C ]   °F
Local TimeTemperatureDewpointHumidityBarometerVisibilityWind DirectionWind SpeedGust SpeedPrecipitationEventsConditions
12:30 AM80.6 °F73.4 °F79 %29.83 in5.0 miWNW (290°)9.2 mphMostly Cloudy
1:00 AM82.0 °F77.0 °F79 %29.79 in6.0 miCalmScattered Clouds
1:00 AM80.6 °F75.2 °F84 %29.83 in5.0 miWNW (290°)9.2 mphMostly Cloudy
1:30 AM80.6 °F75.2 °F84 %29.83 in5.0 miWest (280°)9.2 mphMostly Cloudy
2:00 AM80.6 °F75.2 °F84 %29.80 in5.0 miWest (280°)10.4 mphMostly Cloudy
2:30 AM80.6 °F75.2 °F84 %29.80 in5.0 miWest (280°)9.2 mphMostly Cloudy
3:00 AM80.6 °F75.2 °F84 %29.80 in5.0 miWNW (290°)8.1 mphMostly Cloudy
3:30 AM80.6 °F73.4 °F79 %29.80 in5.0 miWest (280°)10.4 mphMostly Cloudy
4:00 AM80.6 °F73.4 °F79 %29.80 in5.0 miWest (280°)10.4 mphMostly Cloudy
5:00 AM80.6 °F73.4 °F79 %29.80 in5.0 miWest (280°)10.4 mphMostly Cloudy
5:30 AM80.6 °F73.4 °F79 %29.83 in5.0 miWNW (290°)8.1 mphMostly Cloudy
6:00 AM78.8 °F73.4 °F83 %29.83 in5.0 miNW (310°)5.8 mphMostly Cloudy
6:30 AM78.8 °F73.4 °F83 %29.83 in5.0 miWNW (300°)4.6 mphMostly Cloudy
7:00 AM82.0 °F76.0 °F78 %29.79 in6.0 miCalmScattered Clouds
7:00 AM80.6 °F75.2 °F84 %29.83 in5.0 miWNW (300°)5.8 mphMostly Cloudy
7:30 AM82.4 °F75.2 °F79 %29.86 in5.6 miWNW (300°)4.6 mphMostly Cloudy
8:00 AM82.4 °F75.2 °F79 %29.86 in5.6 miWNW (300°)6.9 mphMostly Cloudy
8:30 AM84.2 °F77.0 °F79 %29.86 in5.6 miWest (270°)6.9 mphScattered Clouds
9:00 AM82.4 °F75.2 °F79 %29.89 in1.9 miWest (280°)9.2 mphRainRain
9:30 AM84.2 °F75.2 °F74 %29.89 in5.0 miWSW (250°)9.2 mphMostly Cloudy
10:00 AM84.2 °F75.2 °F74 %29.89 in6.2 miWest (280°)12.7 mphScattered Clouds
10:30 AM86.0 °F75.2 °F70 %29.89 in6.2 miWest (280°)12.7 mphScattered Clouds
11:00 AM86.0 °F75.2 °F70 %29.86 in6.2 miWest (270°)15.0 mphScattered Clouds
11:30 AM86.0 °F75.2 °F70 %29.86 in6.2 miWest (280°)16.1 mphScattered Clouds
12:00 PM86.0 °F75.2 °F70 %29.83 in6.2 miWest (280°)12.7 mphScattered Clouds
12:30 PM86.0 °F75.2 °F70 %29.83 in6.2 miWest (280°)12.7 mphScattered Clouds
1:00 PM88.0 °F77.0 °F64 %29.79 in6.0 miWest (280°)8.1 mphPartly Cloudy
1:00 PM86.0 °F75.2 °F70 %29.80 in6.2 miWest (270°)13.8 mphScattered Clouds
1:30 PM86.0 °F75.2 °F70 %29.80 in6.2 miWest (280°)15.0 mphScattered Clouds
2:00 PM86.0 °F75.2 °F70 %29.80 in6.2 miWest (280°)13.8 mphScattered Clouds
2:30 PM86.0 °F75.2 °F70 %29.77 in6.2 miWest (280°)15.0 mphMostly Cloudy
3:00 PM86.0 °F73.4 °F66 %29.77 in6.2 miWNW (290°)13.8 mphMostly Cloudy
3:30 PM84.2 °F75.2 °F74 %29.77 in6.2 miWest (280°)13.8 mphMostly Cloudy
4:00 PM84.2 °F75.2 °F74 %29.77 in6.2 miWNW (290°)11.5 mphMostly Cloudy
4:30 PM84.2 °F75.2 °F74 %29.77 in5.6 miWNW (290°)11.5 mphMostly Cloudy
5:00 PM84.2 °F75.2 °F74 %29.77 in5.6 miWest (280°)11.5 mphMostly Cloudy
5:30 PM84.2 °F75.2 °F74 %29.77 in5.6 miWest (280°)12.7 mphMostly Cloudy
6:00 PM82.4 °F73.4 °F74 %29.77 in5.6 miWNW (290°)8.1 mphMostly Cloudy
6:30 PM82.4 °F73.4 °F74 %29.77 in5.0 miWNW (290°)10.4 mphMostly Cloudy
7:00 PM83.0 °F77.0 °F76 %29.74 in6.0 miWest (280°)4.6 mphScattered Clouds
7:00 PM82.4 °F73.4 °F74 %29.77 in5.0 miWNW (290°)9.2 mphMostly Cloudy
7:30 PM82.4 °F75.2 °F79 %29.80 in5.0 miWNW (300°)8.1 mphMostly Cloudy
8:00 PM82.4 °F75.2 °F79 %29.80 in5.0 miWNW (290°)8.1 mphMostly Cloudy
8:30 PM82.4 °F75.2 °F79 %29.83 in5.0 miWNW (290°)9.2 mphMostly Cloudy
9:00 PM82.4 °F75.2 °F79 %29.83 in5.0 miWNW (290°)5.8 mphMostly Cloudy
9:30 PM82.4 °F73.4 °F74 %29.86 in5.0 miWNW (290°)6.9 mphMostly Cloudy
10:00 PM82.4 °F75.2 °F79 %29.86 in5.0 miWest (280°)8.1 mphMostly Cloudy
10:30 PM80.6 °F75.2 °F84 %29.86 in5.0 miWest (280°)8.1 mphMostly Cloudy
11:00 PM80.6 °F75.2 °F84 %29.86 in5.6 miWest (280°)5.8 mphMostly Cloudy
11:30 PM80.6 °F75.2 °F84 %29.83 in5.6 miWest (280°)6.9 mphMostly Cloudy
Hourly data recorded from VTSP, located miles away from Phuket, Thailand







STORIES FROM OUR PARTNERS